Location: Stara Lesna
(49.1528°N, 20.2911°E)
Time: 23:43:02
(UTC+02:00)

Lacrosse 5 - Pass Details

Date: 21 September 2019
Orbit: 715 x 724 km, 57.0° (Epoch: 16 October)

Event Time Altitude Azimuth Distance (km) Brightness Sun altitude
Exits shadow 01:38:56 16° 57° (ENE) 1,844 4.4 -37.9°
Drops below altitude 10° 01:40:03 10° 64° (ENE) 2,203 4.8 -37.8°
Sets 01:42:38 0° 74° (ENE) 3,124 5.6 -37.7°
